Hourly Data Report for July 18, 2017

QUALICUM BEACH AIRPORT
BRITISH COLUMBIA

49°20'14.000" N
124°23'38.000" W
58.20 m
1026562
71766
VOQ

Download Data

Hourly Data (July 2017)
Hourly Data Report for July 18, 2017
TIME
LST
Temp Definition
°C
Dew Point Definition
°C
Rel Hum Definition
%
Precip. Amount Definition
mm

Wind Dir Definition
10's deg

Wind Spd Definition
km/h
Visibility Definition
km
Stn Press Definition
kPa
Hmdx Definition


Wind Chill Definition


Weather Definition


00:00 11.8 7.6 76 0.0 0 1   100.92     LegendNANA
01:00 12.4 7.6 73 0.0 26 3   100.94     LegendNANA
02:00 11.6 7.9 78 0.0 24 2   100.97     LegendNANA
03:00 10.7 7.7 82 0.0 25 3   100.98     LegendNANA
04:00 10.4 7.2 81 0.0 24 2   100.98     LegendNANA
05:00 10.0 7.0 82 0.0 24 2   101.01     LegendNANA
06:00 11.7 8.0 78 0.0   0   101.01     LegendNANA
07:00 17.3 8.6 57 0.0 31 9   101.02     LegendNANA
08:00 18.6 8.4 51 0.0 32 8   101.02     LegendNANA
09:00 19.3 9.6 53 0.0 35 7   101.00     LegendNANA
10:00 20.9 10.8 52 0.0 3 7   100.97     LegendNANA
11:00 21.6 9.2 45 0.0 2 7   100.95     LegendNANA
12:00 21.7 8.2 42 0.0 36 8   100.93     LegendNANA
13:00 22.6 8.8 41 0.0 6 9   100.89     LegendNANA
14:00 25.1 7.2 32 0.0 10 8   100.84 25   LegendNANA
15:00 24.6 7.6 34 0.0 11 10   100.82 25   LegendNANA
16:00 26.7 6.4 27 0.0 9 8   100.78 26   LegendNANA
17:00 26.5 5.0 25 0.0 10 7   100.74 26   LegendNANA
18:00 26.7 5.4 26 0.0 8 5   100.71 26   LegendNANA
19:00 25.4 6.2 29 0.0 7 4   100.72 25   LegendNANA
20:00 21.9 12.4 55 0.0 29 1   100.73     LegendNANA
21:00 18.9 8.4 50 0.0 16 2   100.77     LegendNANA
22:00 17.6 8.2 54 0.0 22 1   100.81     LegendNANA
23:00 15.9 9.6 66 0.0 14 2   100.82     LegendNANA

Notes on Data Quality.

Legend

  • E = Estimated
  • M = Missing
  • NA = Not Available*
  • [empty] = Indicates an unobserved value
Date modified: